DW8750 Barcellona Pozzo di Gotto IT current weather conditions

sailwx.info

Wind from 004

Air temperature 20.6° C
Dewpoint 14.2° C

Last reported at 2020-Oct-26 09:01 UTC.
Time now 2020-Oct-26 09:37 UTC

Location: N 38°09' E 015°13'.
View on Google Maps.

See reports from other nearby stations

  
Tides and Currents Weather Stations Pressure Air Temp Water Temp Dewpoint Dewpoint Depression Visibility Wind Speed Wind Dir Waves Ship Positions
date/time (UTC)wind fromknots sea level pressurealtimeterstation pressurevisibilityair tempwater tempwave heightnotes
2020-Oct-26 09:01 004 20.6
2020-Oct-26 08:55 358 20.6
2020-Oct-26 08:50 358 1 gusting 2 20.6
2020-Oct-26 08:45 292 20.6
2020-Oct-26 08:40 292 20.0
2020-Oct-26 08:35 292 20.6
2020-Oct-26 08:30 239 20.6
2020-Oct-26 08:25 239 19.4
2020-Oct-26 08:20 239 20.0
2020-Oct-26 08:14 220 20.0
2020-Oct-26 08:04 220 19.4
2020-Oct-26 07:59 220 19.4
2020-Oct-26 07:54 220 18.9
2020-Oct-26 07:49 220 18.9
2020-Oct-26 07:44 220 19.4
2020-Oct-26 07:39 220 19.4
2020-Oct-26 07:33 220 18.9
2020-Oct-26 07:28 201 18.9
2020-Oct-26 07:23 157 18.3
2020-Oct-26 07:18 217 1 gusting 4 17.8
2020-Oct-26 07:13 212 2 gusting 4 17.8
2020-Oct-26 07:08 212 0 gusting 3 17.8
2020-Oct-26 07:03 196 17.2
2020-Oct-26 06:58 196 17.2
2020-Oct-26 06:53 205 2 gusting 5 17.2
2020-Oct-26 06:48 198 2 gusting 5 17.2
2020-Oct-26 06:43 195 3 gusting 5 16.7
2020-Oct-26 06:38 182 2 gusting 4 16.7
2020-Oct-26 06:33 191 2 gusting 4 16.7
2020-Oct-26 06:28 160 2 gusting 4 16.7
2020-Oct-26 06:23 188 3 gusting 5 16.1
2020-Oct-26 06:18 194 3 gusting 5 16.1
2020-Oct-26 06:13 187 3 gusting 4 16.1
2020-Oct-26 06:08 184 3 gusting 4 16.1
2020-Oct-26 06:03 171 2 gusting 4 16.1
2020-Oct-26 05:58 205 3 gusting 5 15.6
2020-Oct-26 05:53 201 3 gusting 5 15.6
2020-Oct-26 05:48 164 3 gusting 5 16.1
2020-Oct-26 05:43 175 4 gusting 5 15.6
2020-Oct-26 05:38 170 3 gusting 4 15.6
2020-Oct-26 05:33 161 2 gusting 5 16.1
2020-Oct-26 05:28 198 3 gusting 6 15.6
2020-Oct-26 05:23 161 3 gusting 6 16.1
2020-Oct-26 05:18 212 4 gusting 6 15.6
2020-Oct-26 05:13 205 5 gusting 6 15.6
2020-Oct-26 05:08 189 4 gusting 5 15.6
2020-Oct-26 05:03 192 3 gusting 5 15.6
2020-Oct-26 04:58 181 3 gusting 5 15.6
2020-Oct-26 04:53 178 3 gusting 5 15.6
2020-Oct-26 04:48 181 3 gusting 4 15.6
2020-Oct-26 04:43 180 3 gusting 5 15.6
2020-Oct-26 04:38 208 3 gusting 5 15.6
2020-Oct-26 04:33 185 4 gusting 5 15.6
2020-Oct-26 04:28 188 3 gusting 5 16.1
2020-Oct-26 04:23 192 4 gusting 5 16.1
2020-Oct-26 04:18 185 3 gusting 5 15.6
2020-Oct-26 04:13 170 4 gusting 5 15.6
2020-Oct-26 04:08 184 3 gusting 5 16.1
2020-Oct-26 04:03 177 1 gusting 5 16.1
2020-Oct-26 03:58 172 2 gusting 5 16.1
2020-Oct-26 03:53 201 2 gusting 5 16.1
2020-Oct-25 20:03
2020-Oct-25 19:03
2020-Oct-25 18:08
2020-Oct-25 18:03
2020-Oct-25 17:04
2020-Oct-25 16:02 307 4 19.4
2020-Oct-25 15:12
2020-Oct-25 15:07
2020-Oct-25 15:02 20.0
2020-Oct-25 14:27 300 8 20.6
2020-Oct-25 14:22 329 7 20.6
2020-Oct-25 14:17 327 9 20.6
2020-Oct-25 14:12 312 7 20.6
2020-Oct-25 14:07 300 7 20.6
2020-Oct-25 14:02 312 9 20.0
2020-Oct-25 13:42 289 8 20.6
2020-Oct-25 13:37 271 7 20.6
2020-Oct-25 13:32 299 9 20.0
2020-Oct-25 13:27 307 6 20.6
2020-Oct-25 13:22 336 8 20.6
2020-Oct-25 13:17 285 7 20.6
2020-Oct-25 13:12
2020-Oct-25 13:07
2020-Oct-25 13:02
2020-Oct-25 12:57
2020-Oct-25 12:52
2020-Oct-25 12:47
2020-Oct-25 12:42
2020-Oct-25 12:37
2020-Oct-25 12:32
2020-Oct-25 12:27
2020-Oct-25 12:22
2020-Oct-25 12:17
2020-Oct-25 12:12
2020-Oct-25 12:07
2020-Oct-25 12:02
2020-Oct-25 11:52
2020-Oct-25 11:47
2020-Oct-25 11:42
2020-Oct-25 11:37
2020-Oct-25 11:32
2020-Oct-25 11:27
2020-Oct-25 11:22
2020-Oct-25 11:17
2020-Oct-25 11:12
2020-Oct-25 11:07
2020-Oct-25 11:02
2020-Oct-25 10:57
2020-Oct-25 10:52
2020-Oct-25 10:47
2020-Oct-25 10:42
2020-Oct-25 10:37
2020-Oct-25 10:32
2020-Oct-25 10:27
2020-Oct-25 10:22
2020-Oct-25 10:17 20.6
2020-Oct-25 10:12 20.6
2020-Oct-25 10:07 20.0
2020-Oct-25 10:02 20.6
2020-Oct-25 09:57 20.0
2020-Oct-25 09:52 20.0
2020-Oct-25 09:47 19.4
2020-Oct-25 09:42 19.4
2020-Oct-25 09:37 19.4
2020-Oct-25 09:32 20.0
2020-Oct-25 09:27 20.6
2020-Oct-25 09:22 20.6
2020-Oct-25 09:17 20.6
2020-Oct-25 09:12 20.6
2020-Oct-25 09:07 20.6
2020-Oct-25 09:02 20.6
2020-Oct-25 08:57 20.6
2020-Oct-25 08:52 20.6
2020-Oct-25 08:47 20.6
2020-Oct-25 08:42 20.6
2020-Oct-25 08:37 20.6
2020-Oct-25 08:32 20.0
2020-Oct-25 08:27 20.0
2020-Oct-25 08:22 20.0
2020-Oct-25 08:17 20.0
2020-Oct-25 08:12 257 6 20.0
2020-Oct-25 08:07 289 6 20.0
2020-Oct-25 08:02 258 5 20.6
2020-Oct-25 07:57 243 5 20.0
2020-Oct-25 07:52 237 6 20.6
2020-Oct-25 07:47 272 4 20.0
2020-Oct-25 07:42 215 3 20.0
2020-Oct-25 07:37 223 5 20.0
2020-Oct-25 07:32 243 4 20.0
2020-Oct-25 07:27 198 4 20.0
2020-Oct-25 07:22 213 3 19.4
2020-Oct-25 07:17 232 1 19.4
2020-Oct-25 07:12 261 0 20.0
2020-Oct-25 07:07 216 5 19.4
2020-Oct-25 07:02 239 3 19.4
2020-Oct-25 06:57 232 4 18.9
2020-Oct-25 06:52 215 4 19.4
2020-Oct-25 06:47 219 3 18.9
2020-Oct-25 06:42 201 4 18.9
2020-Oct-25 06:37 217 1 19.4
2020-Oct-25 06:32 220 2 18.9
2020-Oct-25 06:27 246 3 18.9
2020-Oct-25 06:22 243 3 18.9
2020-Oct-25 06:17 260 3 18.9
2020-Oct-25 06:12 236 3 18.9
2020-Oct-25 06:07 258 4 18.9
2020-Oct-25 06:02 230 3 19.4
2020-Oct-25 05:57 281 2 20.0
2020-Oct-25 05:52 284 6 19.4
2020-Oct-25 05:47 291 7 19.4
2020-Oct-25 05:42 262 7 20.0
2020-Oct-25 05:37 303 6 20.0
2020-Oct-25 05:32 288 6 20.0
2020-Oct-25 05:27 289 7 19.4
2020-Oct-25 05:22 286 5 20.0
2020-Oct-25 05:17 289 6 gusting 13 20.0
2020-Oct-25 05:12 299 8 gusting 13 19.4
2020-Oct-25 05:07 289 6 gusting 13 19.4
2020-Oct-25 05:02 299 6 gusting 10 19.4
2020-Oct-25 04:57 307 7 gusting 12 19.4
2020-Oct-25 04:52 307 7 gusting 12 20.0
2020-Oct-25 04:47 255 6 gusting 12 20.0
2020-Oct-25 04:42 307 7 gusting 12 19.4
2020-Oct-25 04:37 303 5 gusting 11 19.4
2020-Oct-25 04:32 299 7 gusting 13 20.0
2020-Oct-25 04:27 323 9 gusting 14 19.4
2020-Oct-25 04:22 284 7 gusting 14 19.4
2020-Oct-25 04:17 309 7 gusting 14 19.4
2020-Oct-25 04:12 293 9 gusting 14 18.9
2020-Oct-25 04:07 275 5 gusting 8 18.9
2020-Oct-25 04:02 265 4 gusting 5 18.9
2020-Oct-25 03:57 261 0 gusting 6 18.3
2020-Oct-25 03:52 213 2 gusting 7 18.3
2020-Oct-25 03:47 215 4 gusting 7 18.3
2020-Oct-25 03:42 198 6 gusting 6 18.3
2020-Oct-25 03:37 229 4 gusting 5 18.3
2020-Oct-25 03:32 163 18.3
2020-Oct-25 03:26 223 0 gusting 4 18.3
2020-Oct-25 03:21 170 18.3
2020-Oct-25 03:16 191 1 gusting 3 18.3
2020-Oct-25 03:11 163 18.3
2020-Oct-25 03:06 208 3 gusting 6 18.3
2020-Oct-25 03:01 167 18.3
2020-Oct-25 02:56 167 18.3
2020-Oct-25 02:51 348 18.9
2020-Oct-25 02:46 348 18.9
2020-Oct-25 02:40 232 18.3
2020-Oct-25 02:35 210 3 gusting 5 18.9
2020-Oct-25 02:30 184 2 gusting 6 18.9
2020-Oct-25 02:25 191 3 gusting 6 18.9
2020-Oct-25 02:20 210 3 gusting 6 18.9
2020-Oct-25 02:15 203 2 gusting 6 18.9
2020-Oct-25 02:10 188 3 gusting 7 18.9
2020-Oct-25 02:05 210 5 gusting 7 18.9
2020-Oct-25 02:01 219 4 gusting 6 18.9
2020-Oct-25 01:55 216 5 gusting 6 18.9
2020-Oct-25 01:50 216 4 gusting 6 19.4
2020-Oct-25 01:45 220 3 gusting 8 19.4
2020-Oct-25 01:40 208 6 gusting 8 19.4
2020-Oct-25 01:35 237 3 gusting 7 19.4
2020-Oct-25 01:30 241 4 gusting 6 19.4
2020-Oct-25 01:25 237 2 gusting 6 19.4
2020-Oct-25 01:20 262 4 gusting 9 20.0
2020-Oct-25 01:15 264 3 gusting 10 20.0
2020-Oct-25 01:10 267 7 gusting 12 20.0
2020-Oct-25 01:05 289 5 gusting 12 20.0
2020-Oct-25 01:00 305 7 gusting 9 20.0
2020-Oct-25 00:55 302 6 gusting 13 20.0
2020-Oct-25 00:50 302 6 gusting 13 20.0
2020-Oct-25 00:45 299 7 gusting 10 20.0
2020-Oct-25 00:40 278 6 gusting 10 20.0
2020-Oct-25 00:35 300 6 gusting 9 20.0
2020-Oct-25 00:30 302 5 gusting 11 20.0
2020-Oct-25 00:25 292 6 gusting 12 20.6
2020-Oct-25 00:20 289 8 gusting 12 20.0
2020-Oct-25 00:15 298 7 gusting 9 19.4
2020-Oct-25 00:10 295 6 gusting 9 20.0
2020-Oct-25 00:05 282 6 gusting 13 20.0
2020-Oct-25 00:00 307 8 gusting 13 20.0
2020-Oct-24 23:55 300 8 gusting 15 20.0
2020-Oct-24 23:50 326 9 gusting 15 20.0
2020-Oct-24 23:45 319 6 gusting 11 20.0
2020-Oct-24 23:40 305 5 gusting 11 20.0
2020-Oct-24 23:35 312 5 gusting 11 20.0
2020-Oct-24 23:30 333 4 gusting 11 20.0
2020-Oct-24 23:25 313 7 gusting 10 20.0
2020-Oct-24 23:20 306 6 gusting 9 20.0
2020-Oct-24 23:15 274 5 gusting 7 20.0
2020-Oct-24 23:10 271 1 gusting 4 19.4
2020-Oct-24 23:05 306 2 gusting 5 19.4
2020-Oct-24 23:00 255 3 gusting 7 20.0
2020-Oct-24 22:55 261 5 gusting 7 20.0
2020-Oct-24 22:50 250 3 gusting 6 20.0
2020-Oct-24 22:45 291 4 gusting 8 20.0
2020-Oct-24 22:40 302 4 gusting 9 20.0
2020-Oct-24 22:35 267 6 gusting 10 20.0
2020-Oct-24 22:30 295 6 gusting 10 20.0
2020-Oct-24 22:25 282 6 gusting 10 20.0
2020-Oct-24 22:20 302 7 gusting 8 20.0
2020-Oct-24 22:15 299 6 gusting 8 20.0
2020-Oct-24 22:10 282 6 gusting 12 20.0
2020-Oct-24 22:05 299 4 gusting 12 20.0
2020-Oct-24 22:00 306 6 gusting 9 19.4
2020-Oct-24 21:55 305 6 gusting 10 20.0
2020-Oct-24 21:50 317 6 gusting 10 19.4
2020-Oct-24 21:45 322 6 gusting 10 19.4
2020-Oct-24 21:40 320 6 gusting 9 18.9
2020-Oct-24 21:35 293 5 gusting 9 18.9
2020-Oct-24 21:30 272 18.9
2020-Oct-24 21:25 291 3 gusting 6 18.9
2020-Oct-24 21:20 295 4 gusting 6 19.4
2020-Oct-24 21:15 244 4 gusting 7 19.4
2020-Oct-24 21:10 271 3 gusting 8 19.4
2020-Oct-24 21:05 232 6 gusting 8 18.9
2020-Oct-24 21:00 198 5 gusting 7 19.4
2020-Oct-24 20:55 196 5 gusting 7 19.4
2020-Oct-24 20:50 230 2 gusting 6 20.0
2020-Oct-24 20:45 268 3 gusting 6 19.4
2020-Oct-24 20:40 257 5 gusting 12 20.0
2020-Oct-24 20:35 265 6 gusting 13 19.4
2020-Oct-24 20:30 288 8 gusting 18 20.0
2020-Oct-24 20:25 299 11 gusting 18 19.4
2020-Oct-24 20:20 268 6 gusting 9 20.6
2020-Oct-24 20:15 282 6 gusting 7 20.6
2020-Oct-24 20:10 310 5 gusting 7 20.6
2020-Oct-24 20:05 302 5 gusting 6 20.6
2020-Oct-24 20:00 285 3 gusting 6 20.6
2020-Oct-24 19:55 288 4 gusting 8 20.6
2020-Oct-24 19:50 291 4 gusting 8 21.1
2020-Oct-24 19:45 289 4 gusting 7 20.6
2020-Oct-24 19:40 288 6 gusting 7 20.6
2020-Oct-24 19:35 303 3 gusting 6 21.1
2020-Oct-24 19:30 302 3 gusting 6 20.6
2020-Oct-24 19:25 295 3 gusting 6 20.6
2020-Oct-24 19:20 284 5 gusting 8 20.6
2020-Oct-24 19:15 282 6 gusting 8 20.6
2020-Oct-24 19:10 291 5 gusting 9 21.1
2020-Oct-24 19:05 307 6 gusting 10 20.6
2020-Oct-24 19:00 295 6 gusting 10 20.6
2020-Oct-24 18:55 275 6 gusting 11 20.6
2020-Oct-24 18:50 285 6 gusting 11 20.6
2020-Oct-24 18:45 282 6 gusting 10 20.6
2020-Oct-24 18:40 293 4 gusting 9 20.6
2020-Oct-24 18:35 292 3 gusting 10 20.6
2020-Oct-24 18:30 292 5 gusting 10 20.6
2020-Oct-24 18:25 295 2 gusting 12 20.6
2020-Oct-24 18:20 307 6 gusting 12 20.6
2020-Oct-24 18:15 292 8 gusting 12 20.6
2020-Oct-24 18:10 299 6 gusting 12 20.6
2020-Oct-24 18:05 291 7 gusting 12 20.6
2020-Oct-24 18:00 306 8 gusting 12 20.6
2020-Oct-24 17:55 286 6 gusting 11 21.1
2020-Oct-24 17:50 271 8 gusting 11 20.6
2020-Oct-24 17:45 286 7 gusting 11 20.6
2020-Oct-24 17:40 299 3 gusting 11 20.6
2020-Oct-24 17:35 309 8 gusting 12 20.6
2020-Oct-24 17:30 298 6 gusting 14 21.1
2020-Oct-24 17:25 322 7 gusting 15 20.6
2020-Oct-24 17:20 279 11 gusting 15 20.6
2020-Oct-24 17:15 306 8 gusting 13 20.6
2020-Oct-24 17:10 299 6 gusting 13 21.1
2020-Oct-24 17:05 302 6 gusting 13 20.6
2020-Oct-24 17:00 296 8 gusting 14 21.1
2020-Oct-24 16:55 298 9 gusting 14 21.1
2020-Oct-24 16:50 296 6 gusting 13 21.1
2020-Oct-24 16:45 315 6 gusting 13 21.1
2020-Oct-24 16:40 305 8 gusting 13 21.1
2020-Oct-24 16:35 281 7 gusting 13 21.7
2020-Oct-24 16:30 345 7 gusting 14 21.1
2020-Oct-24 16:25 322 9 gusting 14 21.7
2020-Oct-24 16:20 296 6 gusting 17 21.7
2020-Oct-24 16:15 306 11 gusting 17 21.7
2020-Oct-24 16:10 309 9 gusting 13 21.7
2020-Oct-24 16:05 330 8 gusting 15 21.7
2020-Oct-24 16:00 299 9 gusting 16 21.7
2020-Oct-24 15:55 303 9 gusting 17 21.7
2020-Oct-24 15:50 281 13 gusting 17 21.7
2020-Oct-24 15:45 288 10 gusting 16 21.7
2020-Oct-24 15:40 285 9 gusting 16 21.7
2020-Oct-24 15:35 310 6 gusting 16 22.2
2020-Oct-24 15:30 298 10 gusting 16 21.7
2020-Oct-24 15:25 274 8 gusting 14 21.7
2020-Oct-24 15:20 309 7 gusting 13 21.7
2020-Oct-24 15:15 293 7 gusting 13 22.2
2020-Oct-24 15:10 265 6 gusting 11 22.2
2020-Oct-24 15:05 260 7 gusting 13 22.2
2020-Oct-24 15:00 285 6 gusting 13 22.2
2020-Oct-24 14:55 279 7 gusting 11 22.2
2020-Oct-24 14:50 307 8 gusting 13 22.2
2020-Oct-24 14:45 310 8 gusting 13 22.8
2020-Oct-24 14:40 296 7 gusting 13 22.2
2020-Oct-24 14:35 307 8 gusting 13 22.8
2020-Oct-24 14:30 312 7 gusting 9 22.8
2020-Oct-24 14:25 298 6 gusting 12 22.2
2020-Oct-24 14:20 305 7 gusting 12 22.2
2020-Oct-24 14:15 326 7 gusting 13 22.2
2020-Oct-24 14:10 284 8 gusting 13 22.2
2020-Oct-24 14:05 296 8 gusting 13 22.2
2020-Oct-24 14:00 306 7 gusting 13 22.8
2020-Oct-24 13:55 291 10 gusting 13 22.8
2020-Oct-24 13:50 212 2 gusting 4 22.8
2020-Oct-24 13:45 234 22.2
2020-Oct-24 13:40 234 22.2
2020-Oct-24 13:35 358 22.2
2020-Oct-24 13:25 254 1 gusting 4 22.2
2020-Oct-24 13:20 171 1 gusting 8 22.2
2020-Oct-24 13:10 329 4 gusting 7 21.7
2020-Oct-24 13:05 344 2 gusting 5 22.8
2020-Oct-24 12:55 316 22.2
2020-Oct-24 12:49 350 3 gusting 8 22.8
2020-Oct-24 12:44 291 4 gusting 7 22.8
2020-Oct-24 12:39 326 3 gusting 5 22.8
2020-Oct-24 12:34 250 3 gusting 6 22.8
2020-Oct-24 12:29 334 2 gusting 6 22.8
2020-Oct-24 12:24 340 4 gusting 6 23.3
2020-Oct-24 12:19 326 22.8
2020-Oct-24 12:14 288 3 gusting 6 22.8
2020-Oct-24 12:09 303 4 gusting 7 22.8
2020-Oct-24 12:04 322 5 gusting 7 22.8
2020-Oct-24 11:59 296 6 gusting 10 22.8
2020-Oct-24 11:54 291 7 gusting 10 22.8
2020-Oct-24 11:49 292 6 gusting 9 23.3
2020-Oct-24 11:44 295 4 gusting 9 23.3
2020-Oct-24 11:39 313 6 gusting 9 23.3
2020-Oct-24 11:34 288 4 gusting 6 23.3
2020-Oct-24 11:29 312 3 gusting 6 23.3
2020-Oct-24 11:24 317 5 gusting 9 23.3
2020-Oct-24 11:19 305 1 gusting 9 23.3
2020-Oct-24 11:14 315 2 gusting 6 23.3
2020-Oct-24 11:09 208 4 gusting 6 23.3
2020-Oct-24 11:04 043 1 gusting 6 23.3
2020-Oct-24 10:59 336 4 gusting 8 23.3
2020-Oct-24 10:54 337 4 gusting 8 23.9
2020-Oct-24 10:49 322 4 gusting 6 23.3
2020-Oct-24 10:44 331 3 gusting 6 23.9
2020-Oct-24 10:39 347 4 gusting 6 24.4
2020-Oct-24 10:34 229 24.4
2020-Oct-24 10:29 015 24.4
2020-Oct-24 10:24 015 24.4
2020-Oct-24 10:18 015 23.9
2020-Oct-24 10:13 092 23.9
2020-Oct-24 10:08 037 24.4
2020-Oct-24 10:03 035 24.4
2020-Oct-24 09:58 035 24.4
2020-Oct-24 09:53 035 23.9
2020-Oct-24 09:48 203 23.9
2020-Oct-24 09:43 203 23.3
2020-Oct-24 09:38 203 23.3
2020-Oct-24 09:33 203 23.3
2020-Oct-24 09:28 203 23.3
2020-Oct-24 09:22 199 23.3
2020-Oct-24 09:17 199 23.3
2020-Oct-24 09:12 199 22.8
2020-Oct-24 09:07 199 0 gusting 1 22.8
2020-Oct-24 09:02 268 22.8